RH
7 10 13 23 32 36 33 25 17 15 16 14 13 14 15 15 15 25 43 34 27 24 23 19 23 36 61 58 54 49 46 43 42 39 43 42 47 54 60 57 46 36 37 37 51 53 77 78 80
8 16 24 25 38 42 37 24 17 16 14 12 12 13 14 33 28 35 43 41 43 28 20 18 21 24 41 64 59 55 50 47 44 40 41 40 41 44 44 40 31 28 27 29 52 78 79 81 80
12 26 30 33 46 44 36 17 14 13 12 11 11 11 14 30 26 21 31 30 28 21 18 19 21 21 24 46 67 61 57 51 44 43 44 45 43 42 40 31 27 25 28 37 76 66 80 85 79
19 29 30 32 39 34 26 22 17 12 12 11 11 13 16 20 20 23 26 27 24 18 18 20 24 25 24 31 62 72 67 60 55 48 54 54 52 47 34 28 30 34 82 96 79 74 83 84 80
22 25 35 37 36 27 20 16 13 12 12 13 13 15 17 24 25 25 27 28 24 21 23 31 36 34 35 38 54 71 76 71 64 68 70 81 73 70 62 38 34 56 87 95 68 73 76 85 83
24 26 36 39 31 22 18 14 12 13 11 11 14 18 29 24 23 24 26 27 26 26 28 35 46 43 48 57 69 79 85 81 79 79 93 70 69 72 90 63 68 88 69 76 66 72 74 78 74
32 37 37 30 28 23 18 12 15 12 12 12 12 21 42 34 27 23 27 29 30 29 31 33 36 39 55 64 79 88 92 88 87 90 92 67 59 65 92 81 78 62 32 45 57 68 82 68 72
24 32 30 29 27 26 16 11 12 11 12 11 11 21 47 32 33 32 34 34 30 31 40 40 42 42 54 53 78 89 87 92 85 82 80 80 57 76 89 91 80 77 26 38 45 70 74 82 87
23 33 39 29 24 21 15 14 12 10 10 10 9 10 10 23 39 41 37 34 38 46 52 54 58 55 48 54 71 81 90 79 85 86 88 74 63 63 75 82 84 70 36 40 44 68 86 86 74
27 35 30 24 20 20 17 17 14 10 10 10 10 15 14 28 38 37 32 31 41 47 52 66 63 59 59 58 82 83 98 75 94 84 86 74 74 71 65 78 94 81 31 36 52 82 86 70 66
23 29 22 20 18 18 18 17 14 12 14 11 10 19 22 35 38 34 33 36 40 48 58 67 72 69 64 64 82 95 99 100 91 82 81 77 81 81 64 76 94 86 32 36 67 84 68 74 74
30 22 20 19 17 18 19 16 14 13 12 11 11 10 22 31 32 29 39 39 48 55 62 70 76 75 71 74 89 94 100 99 100 97 82 74 76 72 63 61 87 76 31 31 51 75 66 69 70
29 25 21 18 17 16 15 16 15 13 11 12 12 10 16 24 28 35 45 45 53 60 61 68 80 81 79 78 86 89 83 87 93 93 91 84 77 82 96 76 87 53 25 24 30 64 62 66 71
24 24 22 19 18 17 18 18 16 14 13 12 12 12 10 18 28 41 49 48 50 57 66 71 78 83 86 92 89 87 89 95 98 100 94 100 90 95 95 78 86 34 16 17 25 41 63 66 68
24 28 27 24 21 20 16 22 20 13 13 14 13 12 12 12 23 26 30 40 46 54 62 66 76 83 81 90 90 95 95 88 97 100 100 100 98 100 98 76 68 26 16 18 19 43 67 65 69
31 31 36 22 20 18 19 27 20 14 16 15 14 13 13 13 22 27 34 40 51 57 60 67 76 87 94 88 96 94 91 89 91 99 99 100 99 98 93 80 41 20 18 20 20 59 66 63 67
38 41 40 33 22 22 22 27 21 16 16 16 16 14 14 17 26 32 39 38 48 54 58 62 64 73 92 86 95 93 98 99 98 89 88 99 100 87 89 71 38 22 23 21 28 62 58 53 66
44 45 38 37 26 24 27 26 22 17 17 16 14 12 14 23 25 36 39 46 51 56 57 53 56 78 98 99 98 90 96 100 99 85 95 100 87 90 75 66 38 31 31 37 36 42 53 49 66
35 38 41 31 24 24 25 27 26 25 22 19 16 16 16 23 45 47 45 48 51 56 57 38 64 80 97 99 98 94 100 98 100 99 99 99 96 90 82 65 40 42 44 57 67 67 62 64 64
35 39 38 30 25 24 24 24 30 28 24 19 17 15 15 22 57 59 54 54 49 48 48 40 71 90 99 99 99 99 91 99 92 100 93 100 92 93 89 61 49 52 64 75 80 73 69 63 61
22 32 34 34 25 22 25 30 33 27 25 23 20 18 16 24 50 62 58 56 52 50 40 43 67 89 88 87 99 98 100 97 100 100 100 98 86 81 88 64 56 56 63 78 81 75 64 65 66
20 16 19 21 26 33 33 47 33 32 30 25 21 19 19 25 47 59 60 56 53 49 42 47 69 81 84 87 99 98 99 100 98 98 100 99 98 92 83 69 68 69 64 72 80 76 61 62 64
20 18 22 22 26 32 35 50 42 32 34 28 23 20 18 28 41 55 48 49 53 44 45 49 68 81 91 87 99 98 100 99 98 100 97 99 96 85 84 75 83 84 76 78 80 74 66 63 60
16 20 22 24 34 47 49 52 46 42 32 27 21 19 19 24 48 62 61 56 55 45 55 48 67 74 96 86 98 96 99 98 99 100 100 100 96 92 93 91 91 92 91 89 80 73 67 61 60
25 29 48 52 59 56 38 44 35 32 27 26 24 21 18 20 60 67 62 59 59 47 53 52 67 71 98 91 90 99 98 100 99 99 100 100 100 97 88 96 96 88 86 82 88 85 73 61 61
28 32 58 53 75 57 36 52 49 37 33 28 26 22 26 44 73 64 55 57 57 44 44 49 73 83 97 92 90 90 89 98 99 100 99 99 100 100 96 100 97 100 84 92 94 86 75 75 68
24 37 32 44 56 65 55 49 41 41 42 37 26 28 34 60 72 68 57 58 55 42 37 38 59 80 96 97 94 92 92 94 99 99 100 100 100 100 100 97 93 89 88 90 90 85 77 78 70
26 28 37 43 49 56 54 53 57 51 50 41 36 38 41 60 69 67 56 53 51 46 44 40 43 56 93 96 94 94 97 95 96 100 99 99 100 100 100 94 88 84 73 75 78 76 76 81 77
30 30 33 40 51 47 61 52 52 54 51 48 50 44 41 31 55 71 56 51 49 53 50 45 44 46 91 97 94 94 91 92 94 99 100 99 100 98 88 88 85 85 72 66 77 78 72 78 77
47 32 40 59 54 51 59 51 39 45 44 56 55 46 41 32 38 47 65 65 50 52 53 49 46 44 46 95 98 96 93 92 97 93 87 96 97 95 84 81 79 74 69 68 78 79 78 79 78
Wind_Speed
3 4 2 2 3 4 3 6 4 7 1 6 8 8 6 5 3 4 15 10 7 6 6 4 3 3 9 17 20 21 21 16 20 20 19 20 20 20 19 18 17 16 18 21 22 22 22 19 18
6 5 1 1 4 2 5 5 6 7 10 13 11 8 4 2 9 10 14 13 8 2 5 5 3 1 6 15 20 20 21 23 22 20 20 21 22 21 19 18 18 18 21 22 23 23 22 21 20
6 5 2 3 4 5 5 2 4 6 14 7 5 4 6 10 13 10 10 10 4 1 5 6 5 5 5 11 20 22 23 23 23 23 22 23 23 21 20 18 19 21 21 22 23 24 24 23 23
4 3 3 2 9 7 5 7 11 5 8 11 11 3 6 14 15 14 14 11 6 3 7 8 8 7 8 10 18 23 23 24 22 25 26 24 23 20 18 17 19 21 23 24 25 27 27 24 24
6 2 1 4 7 7 5 16 17 7 6 8 12 5 5 13 15 18 15 11 7 8 9 11 11 10 10 12 16 22 23 23 25 25 25 24 19 13 15 16 20 22 23 24 26 28 28 27 26
3 1 1 5 7 7 7 28 14 7 4 3 6 6 2 11 13 12 14 14 11 11 11 14 14 13 12 14 16 20 23 27 26 26 27 31 16 14 15 14 19 21 20 23 30 28 30 31 27
6 4 5 4 9 8 5 10 6 5 6 5 7 5 12 21 18 18 17 15 11 11 9 13 15 15 15 16 18 23 27 30 31 29 28 16 22 24 17 19 20 18 18 26 30 31 35 31 27
6 4 3 5 6 8 6 14 8 7 8 4 5 5 7 26 25 22 18 13 11 9 7 7 10 14 16 17 21 24 27 31 31 31 33 31 21 20 30 21 21 17 20 29 32 38 34 31 25
6 2 5 7 6 6 16 6 19 14 7 9 9 12 16 22 27 23 19 16 12 11 8 7 9 10 13 18 19 23 25 28 31 28 30 28 22 33 30 24 24 19 22 30 34 38 35 28 23
6 5 9 8 7 10 18 9 19 7 10 7 8 5 6 20 29 26 21 17 14 12 10 10 9 11 12 15 17 22 27 28 33 32 33 22 22 26 24 30 27 23 25 31 37 39 34 26 24
6 11 10 16 22 21 21 14 23 5 6 12 7 6 9 28 27 24 19 18 12 9 12 13 13 14 12 14 15 18 26 29 32 34 31 28 32 33 29 33 32 28 29 35 40 40 34 28 25
7 13 16 22 30 23 14 30 13 15 20 24 20 10 14 27 28 25 22 17 15 14 14 16 16 14 12 14 15 17 24 31 34 32 32 32 35 39 38 42 39 34 33 38 41 42 37 30 24
9 15 24 29 30 32 31 17 15 21 34 25 24 20 15 21 25 26 22 18 17 19 19 18 16 14 13 14 14 17 21 25 28 31 32 37 40 36 44 51 45 37 36 38 42 41 40 32 22
14 15 22 25 25 15 10 9 3 27 23 23 27 29 25 23 24 28 27 25 21 19 18 18 17 15 15 16 16 18 20 21 26 32 37 43 41 35 54 50 44 39 38 39 42 44 41 32 26
15 13 9 6 7 7 17 9 9 32 29 28 32 36 31 27 23 26 27 27 22 21 19 17 16 17 15 16 17 18 17 14 16 28 33 39 44 53 56 51 44 41 39 40 42 43 38 34 26
5 4 5 3 1 4 3 10 12 30 26 31 36 41 38 30 30 27 30 26 23 20 16 14 14 18 14 16 17 15 16 14 14 12 27 37 52 55 51 48 44 41 41 41 43 46 39 37 29
3 13 10 5 4 4 5 12 10 29 24 27 31 40 30 33 31 31 32 28 24 18 13 12 13 12 13 16 14 15 15 12 17 21 24 40 52 53 52 47 45 43 42 42 45 46 40 34 29
8 7 6 5 4 6 10 19 11 27 20 27 26 20 27 32 33 37 33 28 22 17 13 12 12 15 16 18 16 15 13 13 15 28 27 31 52 51 47 46 46 46 45 43 42 43 36 30 31
10 8 11 1 5 7 9 14 9 12 16 14 21 22 23 24 31 38 34 29 24 19 15 11 17 17 18 20 19 20 18 17 16 29 39 33 43 45 46 47 48 47 45 41 38 34 32 27 32
12 14 20 12 11 13 13 20 10 8 8 19 23 21 17 20 30 37 34 31 26 20 16 14 18 17 18 19 21 23 21 17 17 31 41 44 48 42 44 48 49 48 43 40 37 34 33 30 30
15 17 14 15 14 16 12 20 8 6 8 22 30 24 17 21 39 42 39 35 27 23 18 17 19 16 15 15 15 18 23 22 20 28 48 47 46 42 45 48 48 47 43 39 40 34 35 36 32
18 17 17 15 10 8 6 13 9 9 15 14 24 27 18 23 35 46 42 36 31 24 20 19 19 16 12 12 16 18 23 28 28 27 47 47 45 42 40 48 44 42 44 40 41 33 35 36 36
13 17 15 16 9 4 4 4 4 4 9 15 16 26 16 23 38 49 47 39 30 24 21 19 19 16 12 11 11 16 20 27 29 34 37 40 42 42 42 46 40 41 40 39 42 37 36 35 34
12 14 15 13 5 10 7 6 6 4 8 7 16 26 18 18 36 43 45 36 30 25 23 19 20 17 14 12 11 15 20 26 30 38 44 44 45 48 47 46 44 44 45 47 40 36 34 34 33
6 3 4 3 2 5 6 5 14 10 12 16 19 23 31 22 38 46 44 40 34 29 26 22 21 20 18 16 14 14 18 20 26 38 41 47 45 47 47 45 47 47 44 36 36 35 32 35 33
8 9 5 8 5 4 7 5 5 4 8 18 20 17 17 21 39 49 45 41 35 29 26 24 23 21 22 22 19 16 13 17 22 28 34 44 51 48 46 48 44 42 41 44 43 36 36 34 30
9 7 8 5 3 3 4 5 7 5 11 17 15 28 19 30 33 44 42 39 34 29 27 26 24 23 24 24 23 21 19 19 19 25 30 38 48 50 47 43 40 36 31 31 32 36 39 34 30
10 5 4 3 8 6 4 4 5 3 11 19 16 16 14 8 23 38 42 38 32 28 26 26 24 24 27 26 26 25 24 23 22 26 33 37 46 52 47 40 39 40 39 39 36 40 35 31 32
5 10 1 4 4 10 1 5 5 6 8 9 14 16 27 17 12 18 40 37 32 29 28 27 25 26 28 30 29 27 26 25 25 28 32 35 37 34 39 48 47 44 41 38 33 38 40 37 33
4 4 6 4 2 3 4 5 2 6 6 7 9 22 28 31 27 23 27 37 35 31 29 29 27 27 27 31 33 32 28 30 29 28 28 32 33 37 38 39 42 43 37 38 39 40 39 36 33
Wind_Direction
161 187 225 326 42 62 264 259 268 294 58 135 111 106 155 121 155 234 151 167 181 155 124 66 55 142 190 192 184 175 182 181 201 184 184 177 177 179 177 176 174 175 177 171 167 161 158 156 153
172 184 274 96 98 54 269 248 208 218 172 139 122 123 120 105 145 154 171 195 175 70 12 330 330 308 198 203 198 200 202 189 189 185 189 185 182 184 181 179 181 181 178 172 167 158 160 154 154
177 194 274 131 155 193 208 262 260 252 165 161 131 145 165 164 163 166 178 184 178 320 315 281 271 264 249 208 208 202 201 197 193 191 189 189 182 181 179 180 179 175 174 162 156 160 158 159 157
176 209 253 129 241 258 213 310 272 257 174 153 158 154 161 188 177 180 185 189 192 264 273 269 253 242 238 227 209 211 202 202 196 192 185 186 176 178 181 180 174 169 157 155 160 159 160 161 163
188 220 26 280 260 263 240 236 261 248 180 178 175 204 120 155 178 177 184 193 220 245 257 252 243 241 237 228 216 211 210 206 201 201 186 173 157 158 181 176 175 166 160 161 164 161 162 164 165
164 109 84 241 262 283 289 286 239 197 178 220 174 117 152 167 187 195 199 205 224 248 257 240 237 241 239 229 217 208 205 206 206 187 177 167 160 194 196 187 181 170 170 166 160 162 161 163 160
138 102 227 251 277 290 274 317 155 160 209 236 138 111 157 175 198 205 197 214 233 258 249 240 240 241 235 229 220 211 206 210 205 194 192 226 209 205 197 201 193 184 172 161 159 159 160 157 154
180 115 243 237 248 273 255 355 297 197 233 192 198 161 181 196 193 194 198 216 247 255 248 236 244 250 244 238 225 221 216 217 215 211 209 217 218 198 205 202 201 189 172 165 161 159 161 153 157
182 133 240 230 228 244 312 356 315 288 265 216 253 269 275 211 191 194 204 219 231 238 239 243 270 260 255 243 232 223 219 222 228 213 209 199 201 199 227 220 205 197 179 169 162 161 160 158 163
172 178 232 204 249 288 294 285 295 297 288 285 280 276 271 199 194 203 211 229 232 247 260 257 258 264 272 252 230 223 222 217 208 200 191 204 195 189 207 192 206 199 183 172 163 162 161 160 165
216 225 241 271 267 263 272 284 283 246 291 280 270 188 203 190 200 212 220 238 254 254 254 253 246 254 265 245 233 225 219 217 206 200 208 209 200 198 199 193 203 201 184 174 168 164 161 157 158
243 245 248 257 266 266 259 271 263 266 271 289 292 283 211 200 205 218 217 233 228 231 239 239 233 243 252 243 238 231 223 216 212 211 209 213 209 209 210 210 203 200 186 176 173 169 163 160 168
233 249 255 258 260 261 271 261 258 270 277 283 288 271 222 220 217 217 212 225 219 223 227 234 236 239 243 240 232 231 224 222 220 219 212 209 205 211 188 193 197 195 184 178 173 172 168 164 169
262 250 252 257 261 261 268 277 320 278 287 280 282 279 256 228 205 204 203 218 222 228 225 231 242 245 248 233 230 231 229 233 234 227 218 211 207 200 194 196 194 186 181 175 173 173 170 169 172
262 268 278 253 242 236 281 287 254 279 285 282 279 275 264 231 214 218 223 222 228 231 241 246 249 257 252 230 222 223 227 214 221 215 211 207 199 182 194 188 188 182 175 173 173 171 173 169 169
292 261 256 172 62 273 248 269 273 285 287 280 274 271 263 230 213 219 216 220 222 231 241 250 251 255 234 215 217 221 215 211 209 196 188 165 185 191 190 185 181 178 173 173 172 171 176 174 176
233 256 260 297 221 248 224 280 257 284 287 277 267 264 247 209 202 208 207 222 226 230 238 251 261 231 211 205 215 210 212 225 228 220 193 192 181 194 186 183 177 176 172 173 174 175 179 177 175
227 257 234 218 278 235 259 271 278 286 314 288 241 231 212 199 205 197 205 212 218 220 227 248 217 200 197 199 208 206 202 205 227 207 203 184 181 185 185 180 177 176 173 173 176 181 184 182 174
239 248 251 191 237 292 265 268 265 291 318 296 278 231 232 214 197 193 200 205 209 217 222 232 197 196 197 198 204 208 201 204 187 196 191 194 188 185 185 181 177 177 175 178 179 177 178 178 179
238 248 260 275 266 260 272 271 241 265 276 298 288 250 235 209 191 190 197 202 208 222 216 209 196 196 196 203 209 212 209 207 207 178 185 179 177 185 188 183 179 179 176 179 180 182 175 174 179
236 236 250 249 267 266 271 276 290 295 297 304 299 287 249 203 195 192 197 201 205 218 209 204 194 193 199 202 205 214 209 208 195 176 173 180 179 184 190 186 182 182 183 180 183 186 182 176 179
237 230 242 250 243 255 183 280 261 272 283 281 280 285 262 226 204 197 198 200 207 214 201 200 192 200 202 196 193 194 203 203 200 185 169 176 179 182 191 188 185 184 188 186 188 191 188 184 181
234 246 235 240 242 223 220 268 320 180 272 273 273 278 267 231 207 199 203 204 202 206 198 197 192 197 198 193 196 188 200 202 204 197 184 178 179 181 182 188 190 192 188 193 191 192 193 192 192
233 250 264 244 214 245 171 178 256 210 240 277 286 270 283 233 215 200 199 196 199 196 197 196 187 193 196 196 194 190 198 201 200 200 192 188 185 186 188 188 190 196 194 190 190 189 195 201 202
185 173 244 249 228 240 195 220 261 266 267 262 263 270 284 271 195 193 193 194 195 193 195 197 191 192 195 196 197 190 195 196 200 203 204 192 193 195 196 196 195 198 196 195 203 193 193 206 211
208 179 179 210 189 243 208 235 246 244 283 302 261 264 316 201 183 192 191 193 193 192 194 199 195 194 197 196 200 199 198 202 202 203 206 206 202 187 191 194 198 193 205 203 201 206 197 214 212
228 227 195 182 180 128 223 283 302 14 2 344 33 3 266 184 185 189 189 194 193 196 193 200 198 195 203 201 203 204 203 208 201 210 212 210 202 198 191 186 190 195 201 208 207 200 210 211 218
203 175 210 241 197 236 227 235 246 360 48 328 3 7 40 246 186 190 192 194 196 200 195 199 201 201 200 206 205 210 210 213 214 213 213 208 211 203 194 193 206 210 213 217 221 211 216 227 228
176 226 179 133 152 220 151 262 204 162 105 316 360 349 8 22 248 223 197 198 197 197 198 201 200 202 200 204 205 210 211 214 219 218 219 219 219 203 205 209 212 218 221 222 211 218 225 233 236
185 206 160 156 170 155 155 267 101 179 162 136 352 329 339 354 347 231 221 203 198 198 200 204 204 204 205 204 206 212 211 212 217 220 220 220 216 215 220 221 220 215 219 214 218 223 225 234 237